Regional Weather Roundup
Issued by NWS

Home | Current Version | Previous Version | Graphics & Text | Print | Product List | Glossary On
Versions: 1 2 3 4 5 6 7 8 9 10 11 12 13 14 15 16 17 18 19 20 21 22 23 24 25 26 27 28 29 30 31 32 33 34 35 36 37 38 39 40 41 42 43 44 45 46 47 48 49 50
000
ASUS45 KTFX 301904
RWRMT
MONTANA HOURLY WEATHER ROUNDUP
NATIONAL WEATHER SERVICE GREAT FALLS MT
1204 PM MST FRI JAN 30 2015

NOTE: "FAIR" INDICATES FEW OR NO CLOUDS BELOW 12000 FEET WITH NO
SIGNIFICANT WEATHER AND/OR OBSTRUCTIONS TO VISIBILITY.

* THESE STATIONS ARE NOT UNDER NWS QUALITY CONTROL. THEY DO NOT
   REPORT WEATHER SUCH AS PRECIPITATION OR FOG.

MTZ001>007-043-302000-
WEST OF THE DIVIDE
CITY           SKY/WX    TMP DP  RH WIND       PRES   REMARKS
KALISPELL      FOG       23  23 100 CALM      30.35F VSB M1/4
MISSOULA       FOG       27  25  92 CALM      30.35F
BUTTE          SUNNY     30  19  64 CALM      30.24F
MULLAN PASS    SUNNY     34  18  52 CALM      30.24S
* ANACONDA     SUNNY     37  19  48 N/A        N/A
* ESSEX        N/A       27  18  69 SE2        N/A
* LINCOLN      N/A       22  14  71 SE2        N/A
* LOOKOUT PASS N/A       32  24  72 SE4        N/A
* POLSON       N/A       27  26  96 S1         N/A
* RONAN APT    SUNNY     25  25 100 N/A        N/A
* SEELEY LAKE  N/A       29  19  66 S2         N/A
* THOMP F APT  SUNNY     37  11  34 NW5G12     N/A   WCI  33
$$

MTZ008-052>055-302000-
SOUTHWEST MONTANA
CITY           SKY/WX    TMP DP  RH WIND       PRES   REMARKS
BOZEMAN        PTCLDY    36  25  64 CALM      30.25F
DILLON         PTCLDY    30  18  61 SW8       30.24F WCI  22
* W YELLOWSTON PTSUNNY   22  17  81 N2         N/A
* THREE FORKS  SUNNY     37  37 100 N/A        N/A
* BOULDER HILL N/A       34  16  48 SW7        N/A   WCI  28
* MONIDA PASS  N/A       12  11  96 W4         N/A
* RAYNOLDS PAS N/A       22  21  96 VRB4       N/A
* WHITEHALL    N/A       36  23  59 SW5G10     N/A   WCI  32
* WISE RIVER   N/A       22  14  71 NW5        N/A   WCI  15
$$

MTZ009>010-012-014-046-048-049-054-302000-
EAST SLOPES AND CENTRAL MONTANA
CITY           SKY/WX    TMP DP  RH WIND       PRES   REMARKS
CUT BANK       PTCLDY    43  23  45 SE6       30.18F
GREAT FALLS    SUNNY     45  18  34 SW12      30.19F
HELENA         SUNNY     36  25  64 CALM      30.25F
MALMSTROM AFB  SUNNY     45  21  38 W3        30.20F
* DEARBORN     N/A       42  22  45 SE4        N/A
* EAST GLACIER N/A       36  15  42 W23G31     N/A   WCI  24
* MONARCH      N/A       43  14  31 S2         N/A
* PENDROY      N/A       49   2  14 SE3        N/A
* ROGERS PASS  N/A       32  17  54 S5G14      N/A   WCI  27
* SWEET GRASS  N/A       43  16  34 W4         N/A
$$

MTZ011-013-016-021-035-040-045-047-050-051-302000-
NORTH CENTRAL MONTANA
CITY           SKY/WX    TMP DP  RH WIND       PRES   REMARKS
HAVRE          PTCLDY    41  21  45 W8        30.22F
LEWISTOWN      SUNNY     45  12  26 CALM      30.20F
* N BAR RANCH  SUNNY     45  10  24 SE9       30.20F
* CHESTER      N/A       35  28  76 S2         N/A
* DENTON       N/A       43  20  40 SE6        N/A
* GEYSER       N/A       48  13  24 W8         N/A
* JUDITH GAP   N/A       45  10  24 N7         N/A
* LOMA         N/A       39  26  60 SW2        N/A
$$

MTZ017>020-022>027-061-062-302000-
NORTHEAST MONTANA
CITY           SKY/WX    TMP DP  RH WIND       PRES   REMARKS
GLASGOW        SUNNY     34  28  79 NW7       30.23F WCI  28
GLENDIVE       SUNNY     41  28  60 NW8       30.22F
JORDAN         SUNNY     41  30  65 W5        30.22F
SIDNEY         SUNNY     41  25  53 N7        30.23F
WOLF POINT     SUNNY     36  28  73 W8        30.24F WCI  30
* BEAVER HILL  N/A       38  27  65 W9         N/A   WCI  32
* CIRCLE       N/A       37  31  79 W2G7       N/A
* LINDSAY DVD  N/A       38  28  67 NW17       N/A   WCI  29
* NAVAJO       N/A       37  28  70 NW11       N/A   WCI  29
* SACO         N/A       31  30  96 W6         N/A   WCI  25
$$

MTZ028>042-056>058-302000-
SOUTHCENTRAL AND SOUTHEAST MONTANA
CITY           SKY/WX    TMP DP  RH WIND       PRES   REMARKS
BAKER          SUNNY     43  28  56 W8        30.19F
BILLINGS       SUNNY     43  25  49 SW10      30.22S
LIVINGSTON     PTCLDY    43  16  34 W12       30.21F
MILES CITY     SUNNY     41  27  58 NW6       30.22F
* LAUREL APT   SUNNY     43  21  42 S5         N/A
* ROUNDUP APT  SUNNY     43  21  42 N/A        N/A
* ALZADA       N/A       45  29  54 W6         N/A
* HYSHAM       N/A       44  18  35 NW4        N/A
* LAME DEER    N/A       42  14  32 NW9        N/A
* REED POINT   N/A       42  21  43 W4         N/A
* ROSCOE HILL  N/A       44   8  23 SW2        N/A
$$

REGIONAL REPORTS...DAKOTAS
CITY           SKY/WX    TMP DP  RH WIND       PRES   REMARKS
WILLISTON      SUNNY     39  27  62 N10       30.20F WCI  32
DICKINSON      SUNNY     45  28  51 NW13      30.14F
CROSBY         PTSUNNY   32  30  92 NW17      30.20S WCI  21
WATFORD CITY   SUNNY     37  28  70 NW9       30.17F WCI  30
BISMARCK       SUNNY     39  27  62 W10       30.16F WCI  32
GRAND FORKS    PTSUNNY   25  16  69 S20       30.18F WCI  11
FARGO          PTCLDY    27  18  69 S22G31    30.20F WCI  13
BUFFALO SD     SUNNY     48  25  41 NW12      30.10F
RAPID CITY     PTCLDY    52  25  35 N12       30.15F
$$

REGIONAL REPORTS...WYOMING/IDAHO/WASHINGTON
CITY           SKY/WX    TMP DP  RH WIND       PRES   REMARKS
GILLETTE       PTSUNNY   45  21  38 NW8       30.18F
SHERIDAN       PTCLDY    48  19  32 NW8       30.20F
CODY           PTCLDY    39  25  57 NE5       30.21S WCI  35
YELLOWSTONE LA PTCLDY     7   3  83 CALM      30.23F
SALMON         CLOUDY    28  23  81 CALM      30.35F
MULLAN PASS    SUNNY     34  18  52 CALM      30.24S
SAND POINT     CLOUDY    32  32 100 NE7       30.38F WCI  25
SPOKANE        FOG       30  28  92 VRB3      30.37S VSB M1/4

$$



USA.gov is the U.S. government's official web portal to all federal, state and local government web resources and services.